This is the latest recevied weather packets stored in our database for station/object AE5EW. If no packets are shown the sender has not sent any weather packets the latest 10 day(s).
| Time | Temp. | Humidity | Pressure | Rain* | Wind** | Luminosity | Snow |
|---|---|---|---|---|---|---|---|
| 1787846794 | 28.33° C | 80% | 1017.1 hPa | 0 mm | - | - | - |
| 1787846489 | 28.33° C | 81% | 1017.1 hPa | 0 mm | - | - | - |
| 1787846185 | 28.33° C | 81% | 1017.1 hPa | 0 mm | - | - | - |
| 1787845880 | 28.33° C | 81% | 1017.1 hPa | 0 mm | - | - | - |
| 1787845576 | 28.89° C | 79% | 1017.1 hPa | 0 mm | - | - | - |
| 1787845276 | 28.33° C | 81% | 1017.1 hPa | 0 mm | - | - | - |
| 1787844972 | 28.89° C | 80% | 1017.2 hPa | 0 mm | - | - | - |
| 1787844667 | 27.78° C | 80% | 1017.4 hPa | 0 mm | - | - | - |
| 1787844361 | 27.78° C | 83% | 1017.4 hPa | 0 mm | - | - | - |
| 1787844060 | 27.78° C | 82% | 1017.6 hPa | 0 mm | - | - | - |
| 1787843755 | 26.67° C | 84% | 1017.4 hPa | 0 mm | - | - | - |
| 1787843450 | 26.11° C | 86% | 1017.5 hPa | 0 mm | - | - | - |
| 1787843148 | 26.11° C | 85% | 1017.5 hPa | 0 mm | - | - | - |
| 1787842848 | 26.11° C | 86% | 1017.5 hPa | 0 mm | - | - | - |
| 1787842543 | 26.11° C | 86% | 1017.7 hPa | 0 mm | - | - | - |
| 1787842242 | 26.11° C | 85% | 1017.9 hPa | 0 mm | - | - | - |
| 1787841937 | 26.11° C | 85% | 1017.6 hPa | 0 mm | - | - | - |
| 1787841633 | 26.11° C | 87% | 1017.6 hPa | 0 mm | - | - | - |
| 1787841331 | 26.11° C | 88% | 1017.9 hPa | 0 mm | - | - | - |
| 1787841027 | 26.11° C | 89% | 1017.9 hPa | 0 mm | - | - | - |
| 1787840722 | 26.11° C | 90% | 1017.8 hPa | 0 mm | - | - | - |
| 1787840417 | 26.11° C | 91% | 1017.9 hPa | 0 mm | - | - | - |
| 1787840113 | 26.11° C | 91% | 1017.7 hPa | 0 mm | - | - | - |
| 1787839812 | 26.11° C | 92% | 1017.7 hPa | 0 mm | - | - | - |
| 1787839507 | 26.11° C | 92% | 1017.5 hPa | 0 mm | - | - | - |
* Rain latest hour (hover to see other rain measurements)
** Current wind speed in m/s (hover to see current wind gust speed)